パンスターズ彗星

P/2024 R1 ( PanSTARRS )

English version
Home page
Updated on November 27, 2024

---------------------------------------------------------------------

・ プロフィール

発見日 2024年9月1日
発見光度 21.3等
発見者 Pan-STARRS 1 telescope (Haleakala)

・ 軌道要素

Epoch 2024 Oct. 17.0 TT = JDT 2460600.5
T 2024 June 15.67043 TT                                 Rudenko
q   1.7497600            (2000.0)            P               Q
n   0.15376201     Peri.  230.58209     +0.69510570     +0.68453997
a   3.4506694      Node    84.98258     -0.57305907     +0.71205815
e   0.4929216      Incl.   12.73635     -0.43408682     +0.15613525
P   6.41
From 45 observations 2024 June 3-Oct. 9, mean residual 0".2.

・ 光度変化

        m1 = 18.0 + 5 logΔ + 10.0 log r

---------------------------------------------------------------------

軌道要素はM.P.E.C. 2024-T253に掲載されたものです。
光度グラフはComet for Windowsで作成したものです。

---------------------------------------------------------------------

Copyright(C) Seiichi Yoshida (comet@aerith.net). All rights reserved.